Regional Weather Roundup
Issued by NWS Cleveland, OH

Home | Current Version | Previous Version | Graphics & Text | Print | Product List | Glossary On
Versions: 1 2 3 4 5 6 7 8 9 10 11 12 13 14 15 16 17 18 19 20 21 22 23 24 25 26 27 28 29 30 31 32 33 34 35 36 37 38 39 40 41 42 43 44 45 46 47 48 49 50
000
ASUS41 KCLE 172102
RWRCLE
OHIO REGIONAL WEATHER ROUNDUP
NATIONAL WEATHER SERVICE CLEVELAND, OH
500 PM EDT FRI APR 17 2015

NOTE: "FAIR" INDICATES FEW OR NO CLOUDS BELOW 12,000 FEET WITH NO
SIGNIFICANT WEATHER AND/OR OBSTRUCTIONS TO VISIBILITY.

OHZ001>008-015>018-024>027-034-035-043-044-172200-
   NORTHWEST OHIO

CITY           SKY/WX    TMP DP  RH WIND       PRES   REMARKS
DEFIANCE       NOT AVBL
FINDLAY        SUNNY     74  33  22 CALM      30.02F
TOLEDO EXPRESS SUNNY     74  36  25 SW8       30.00F
TOLEDO EXEC    SUNNY     74  36  25 SW6       30.01F
LIMA           SUNNY     75  33  21 CALM      30.03F
$$

OHZ009>014-019>023-028>033-038-089-172200-
   NORTHEAST OHIO

CITY           SKY/WX    TMP DP  RH WIND       PRES   REMARKS
CLE-HOPKINS    SUNNY     67  51  56 N6        30.05F
CLE-LAKEFRONT  SUNNY     57  51  80 NW3       30.03F
CUY CO. ARPT   SUNNY     64  54  68 NW9       30.04F
LORAIN-ELYRIA  SUNNY     68  46  45 CALM      30.03F
ASHTABULA      SUNNY     64  49  57 N10       30.04F
AKRON-CANTON   MOSUNNY   70  48  45 NE3       30.03F
WOOSTER        SUNNY     70  51  51 NE7       30.03F
MANSFIELD      SUNNY     70  45  40 VRB5      30.04F
YOUNGSTOWN     MOSUNNY   68  48  48 NW8       30.03F
$$

OHZ042-051>053-060>062-070>072-077>081-172200-
  SOUTHWEST OHIO

CITY           SKY/WX    TMP DP  RH WIND       PRES   REMARKS
CINC-COVINGTON PTSUNNY   75  48  38 NW3       30.04F
CINC-LUNKEN    MOSUNNY   74  48  39 CALM      30.03F
HAMILTON       MOSUNNY   75  45  34 VRB6      30.04F
DAYTON         PTSUNNY   75  37  25 NW3       30.05F
WRIGHT-PAT AFB MOSUNNY   73  40  30 N5        30.03F
DAYTON GENERAL SUNNY     74  39  28 CALM      30.03F
WILMINGTON     SUNNY     73  44  35 CALM      30.03F
$$

OHZ036-037-039>041-045>050-054>059-063>069-073>076-082>088-172200-
  CENTRAL AND SOUTHEAST OHIO

CITY           SKY/WX    TMP DP  RH WIND       PRES   REMARKS
COLUMBUS       PTSUNNY   73  43  33 W5        30.01F
OSU AIRPORT    SUNNY     74  45  35 N8        30.02F
BOLTON FIELD   SUNNY     73  46  38 NW6       30.03F
RICKENBACK AFB NOT AVBL
NEWARK         SUNNY     73  46  38 W5        30.01F
MARION         SUNNY     71  42  35 W3        30.03F
LANCASTER      SUNNY     73  48  41 VRB5      30.03F
ZANESVILLE     MOSUNNY   71  51  49 NE3       30.01F
NEW PHILLY     SUNNY     73  46  38 W7        30.02F
$$



USA.gov is the U.S. government's official web portal to all federal, state and local government web resources and services.